GW5208 Weather Reports


Display with metric or nautical units.
time (UTC)temp
F
wind
direction
speed
MPH
gust
MPH
rain 1hr
in
rain 24hr
in
rain mn
in
humidity
%
barometer
mb
20260831124510 47 261 0.0 0.0 0.00 0.00 0.00 72 1015.9
20260831123022 47 319 0.0 0.0 0.00 0.00 0.00 72 1015.9
20260831121514 48 278 0.0 0.0 0.00 0.00 0.00 71 1015.9
20260831120007 48 292 0.0 0.0 0.00 0.00 0.00 71 1015.6
20260831114510 48 266 0.0 0.0 0.00 0.00 0.00 71 1015.7
20260831113016 49 272 0.0 0.0 0.00 0.00 0.00 69 1015.5
20260831111520 49 269 0.0 0.0 0.00 0.00 0.00 68 1015.4
20260831110016 50 264 0.0 0.0 0.00 0.00 0.00 67 1015.3
20260831104512 50 269 0.0 0.0 0.00 0.00 0.00 67 1015.3
20260831103013 50 251 0.0 0.0 0.00 0.00 0.00 66 1015.2
20260831101527 50 245 0.0 0.0 0.00 0.00 0.00 66 1014.9
20260831100020 50 248 0.0 0.0 0.00 0.00 0.00 67 1014.9
20260831094521 51 251 0.0 0.0 0.00 0.00 0.00 64 1014.9
20260831093007 53 264 0.0 0.0 0.00 0.00 0.00 61 1014.8
20260831091529 54 259 0.0 0.0 0.00 0.00 0.00 59 1014.6
20260831090023 54 276 0.0 0.0 0.00 0.00 0.00 59 1014.4
20260831084524 54 263 0.0 0.0 0.00 0.00 0.00 59 1014.3
20260831083029 53 259 0.0 0.0 0.00 0.01 0.00 59 1014.2
20260831081511 53 248 0.0 0.0 0.00 0.01 0.00 61 1013.8
20260831080025 52 259 0.0 0.0 0.00 0.01 0.00 62 1013.9
20260831074528 51 253 0.0 0.0 0.00 0.02 0.00 64 1013.7
20260831073030 50 258 0.0 0.0 0.00 0.02 0.00 66 1013.8
20260831071512 49 264 0.0 0.0 0.00 0.02 0.00 67 1014.0
20260831070015 50 210 0.0 0.0 0.00 0.02 0.00 65 1014.0
20260831064528 52 257 0.0 0.0 0.00 0.02 0.00 61 1013.9
20260831063036 52 283 0.0 0.0 0.00 0.02 0.00 62 1014.0
20260831061529 52 277 0.0 0.0 0.00 0.02 0.00 63 1014.4
20260831060014 51 257 0.0 0.0 0.00 0.02 0.00 64 1014.3
20260831054523 52 263 0.0 0.0 0.00 0.02 0.02 64 1014.3
20260831053031 53 262 0.0 0.0 0.00 0.02 0.02 62 1014.3
20260831051540 54 259 0.0 0.0 0.00 0.02 0.02 61 1014.0
20260831050033 54 260 0.0 0.0 0.00 0.02 0.02 59 1014.0
20260831044521 55 250 0.0 0.0 0.00 0.02 0.02 56 1014.2
20260831043028 56 275 0.0 0.0 0.00 0.02 0.02 54 1014.2
20260831041547 57 276 0.0 0.0 0.00 0.02 0.02 51 1014.2
20260831040030 59 286 0.0 0.0 0.00 0.02 0.02 48 1014.3
20260831034517 59 281 0.0 1.0 0.00 0.03 0.02 47 1014.0
20260831033021 58 257 0.0 7.0 0.00 0.03 0.02 47 1013.8
20260831031529 58 236 0.0 0.0 0.00 0.03 0.02 48 1013.6
20260831030030 59 258 0.0 0.0 0.00 0.03 0.02 47 1013.4
20260831024513 59 254 0.0 0.0 0.00 0.03 0.02 46 1013.1
20260831023024 59 247 0.0 10.0 0.00 0.03 0.02 45 1012.9
20260831021527 60 264 0.0 0.0 0.00 0.03 0.02 44 1012.7
20260831020030 60 255 0.0 0.0 0.00 0.03 0.02 44 1012.8
20260831014534 61 259 0.0 11.0 0.00 0.03 0.02 43 1012.8
20260831013017 61 243 0.0 5.0 0.00 0.03 0.02 43 1012.6
20260831011533 62 257 1.0 12.0 0.00 0.03 0.02 42 1012.4
20260831010030 61 265 2.0 20.0 0.00 0.03 0.02 43 1012.4
20260831004534 62 254 0.0 9.0 0.00 0.04 0.02 42 1012.5
20260831003040 62 259 0.0 18.0 0.00 0.04 0.02 42 1012.6
20260831001523 63 236 0.0 6.0 0.00 0.04 0.02 42 1012.5
20260831000030 62 267 2.0 20.0 0.00 0.07 0.02 42 1012.3
20260830234541 63 263 0.0 22.0 0.00 0.07 0.02 41 1012.2
20260830233033 64 263 4.0 24.0 0.00 0.09 0.02 39 1012.2
20260830231520 65 287 7.0 23.0 0.00 0.11 0.02 38 1012.0
20260830230037 66 261 2.0 16.0 0.00 0.11 0.02 37 1012.0
20260830224532 65 256 5.0 20.0 0.00 0.11 0.02 39 1012.1
20260830223031 66 285 4.0 20.0 0.00 0.11 0.02 39 1012.2
20260830221534 66 250 1.0 19.0 0.00 0.11 0.02 39 1012.2
20260830220027 66 269 2.0 22.0 0.00 0.11 0.02 40 1012.4
20260830214504 66 258 2.0 19.0 0.00 0.11 0.02 40 1012.4
20260830213009 64 248 0.0 2.0 0.00 0.11 0.02 41 1012.6
20260830211518 63 250 0.0 9.0 0.00 0.11 0.02 43 1012.8
20260830210027 63 237 0.0 12.0 0.00 0.11 0.02 43 1012.8
20260830204527 63 256 0.0 10.0 0.00 0.11 0.02 44 1012.8
20260830203010 65 257 0.0 0.0 0.00 0.11 0.02 42 1012.8
20260830201532 64 267 0.0 0.0 0.00 0.11 0.02 42 1012.9
20260830200020 63 254 0.0 0.0 0.00 0.11 0.02 44 1012.8
20260830194530 61 268 0.0 12.0 0.00 0.11 0.02 47 1013.1
20260830193037 61 257 0.0 16.0 0.00 0.11 0.02 45 1013.2
20260830191519 62 259 0.0 0.0 0.00 0.11 0.02 45 1013.0
20260830190020 62 251 0.0 1.0 0.00 0.11 0.02 44 1012.8
20260830184525 64 263 0.0 0.0 0.00 0.11 0.02 42 1012.7
20260830183028 64 249 0.0 0.0 0.00 0.11 0.02 42 1012.9
20260830181532 65 272 0.0 0.0 0.00 0.11 0.02 42 1012.9
20260830180038 64 269 0.0 2.0 0.00 0.11 0.02 43 1012.7
20260830174524 64 254 0.0 0.0 0.00 0.11 0.02 45 1012.6
20260830173045 62 257 0.0 0.0 0.00 0.11 0.02 43 1012.6
20260830171534 64 263 0.0 0.0 0.00 0.11 0.02 42 1012.9
20260830170030 63 233 0.0 0.0 0.00 0.11 0.02 43 1013.0
20260830164523 62 243 0.0 0.0 0.00 0.11 0.02 46 1012.9
20260830163029 61 241 0.0 0.0 0.00 0.11 0.02 47 1012.8
20260830161534 61 256 0.0 0.0 0.00 0.11 0.02 48 1012.9
20260830160034 60 257 0.0 0.0 0.00 0.11 0.02 59 1013.0
20260830154520 58 259 0.0 0.0 0.00 0.11 0.02 59 1013.1
20260830153026 56 217 0.0 0.0 0.00 0.11 0.02 63 1013.4
20260830151527 55 263 0.0 0.0 0.00 0.11 0.02 66 1013.3
20260830150038 53 17 0.0 0.0 0.00 0.11 0.02 69 1013.3
20260830144534 52 231 0.0 0.0 0.00 0.11 0.02 71 1013.3
20260830143024 51 271 0.0 0.0 0.00 0.11 0.02 75 1013.6
20260830141539 48 271 0.0 0.0 0.00 0.11 0.02 79 1013.5
20260830140038 48 271 0.0 0.0 0.00 0.11 0.02 82 1013.6
20260830134534 48 271 0.0 0.0 0.00 0.11 0.02 83 1013.7
20260830133036 48 271 0.0 0.0 0.00 0.11 0.02 82 1013.5
20260830131530 48 271 0.0 0.0 0.00 0.11 0.02 83 1013.5
20260830130007 49 271 0.0 0.0 0.00 0.11 0.02 84 1013.5